Regional Weather Roundup
Issued by NWS

Home | Current Version | Previous Version | Graphics & Text | Print | Product List | Glossary On
Versions: 1 2 3 4 5 6 7 8 9 10 11 12 13 14 15 16 17 18 19 20 21 22 23 24 25 26 27 28 29 30 31 32 33 34 35 36 37 38 39 40 41 42 43 44 45 46 47 48 49 50
197
ASUS44 KJAN 251010
RWRMS

MISSISSIPPI HOURLY WEATHER ROUNDUP
NATIONAL WEATHER SERVICE JACKSON MS
400 AM CST TUE NOV 25 2014

NOTE: "FAIR: INDICATES FEW OR NO CLOUDS BELOW 12,000 FEET WITH NO
SIGNIFICANT WEATHER AND/OR OBSTRUCTIONS TO VISIBILITY.

MSZ001>002-007>008-010>013-018>021-025>028-034>036-251100-
NORTHWEST MISSISSIPPI

CITY           SKY/WX    TMP DP  RH WIND       PRES   REMARKS
CLARKSDALE     FAIR      39  34  81 NW6       30.17R WCI  35
CLEVELAND      FAIR      41  33  74 N8        30.16R
GREENWOOD      CLEAR     32  30  92 CALM      30.14S
GREENVILLE     CLEAR     37  30  75 NW6       30.15R WCI  32
GRENADA        FAIR      32  32 100 CALM      30.16R
OLIVE BRANCH   CLEAR     36  32  87 NW5       30.14S WCI  32
OXFORD         FAIR      30  28  93 CALM      30.15R
TUNICA         SUNNY     37  30  75 NW6       30.17R WCI  33
$$

MSZ003>006-009-014>017-022>024-029>033-037>039-251100-
NORTHEAST MISSISSIPPI

CITY           SKY/WX    TMP DP  RH WIND       PRES   REMARKS
COLUMBUS AFB   CLEAR     34  33  96 NW1       30.11S
CORINTH        FAIR      32  30  93 CALM      30.12R
GOLDN TRIANGLE CLEAR     37  34  87 NW3       30.10S
STARKVILLE       N/A     34  34 100 CALM      30.11S
TUPELO         CLEAR     36  32  85 CALM      30.12R
$$

MSZ040-058-251100-
CENTRAL MISSISSIPPI

CITY           SKY/WX    TMP DP  RH WIND       PRES   REMARKS
JACKSON INTL   CLEAR     37  35  92 CALM      30.13S
JACKSON HAWKNS CLEAR     40  35  83 NW5       30.13S
MERIDIAN KEY   PTCLDY    42  40  92 CALM      30.12S
MERIDIAN NAS   CLEAR     43  39  86 NW3       30.12S
RAYMOND        FAIR      36  30  80 MISG      30.15S HAZE
VICKSBURG      CLEAR     30  29  96 CALM      30.17R
$$

MSZ059>079-251100-
SOUTH MISSISSIPPI

CITY           SKY/WX    TMP DP  RH WIND       PRES   REMARKS
BROOKHAVEN     FAIR      45  37  76 CALM      30.14R
COLUMBIA         N/A     45  41  87 MISG        N/A
HATTIESBURG    CLOUDY    47  40  76 NW3       30.12S
MCCOMB         CLOUDY    50  35  56 N5        30.12R
NATCHEZ        CLEAR     37  32  81 CALM      30.16R
PINE BELT      CLOUDY    46  37  71 N6        30.12S
$$

MSZ080>082-251100-
COASTAL MISSISSIPPI

CITY           SKY/WX    TMP DP  RH WIND       PRES   REMARKS
BILOXI         CLOUDY    55  37  50 N12       30.07R
PASCAGOULA     CLOUDY    54  36  50 N12       30.07R
GULFPORT       CLOUDY    55  35  47 N13       30.07R
$$



USA.gov is the U.S. government's official web portal to all federal, state and local government web resources and services.